Scottsbluff, NE

4:36 PM MDT on August 17, 2017 (GMT -0600)
Heilig

Weather History for KBFF - February, 2014

Change the Weather History Date:

Wednesday, February 12, 2014

  Actual Average Record
Temperature  
Mean Temperature 28 °F 30 °F  
Max Temperature 45 °F 44 °F 73 °F (1962)
Min Temperature 11 °F 16 °F -45 °F (1899)
Degree Days  
Heating Degree Days 37 35  
Month to date heating degree days 667 435  
Since 1 July heating degree days 4466 4377  
Cooling Degree Days 0 0  
Month to date cooling degree days 0 0  
Year to date cooling degree days 0 0  
Moisture  
Dew Point 22 °F    
Average Humidity 73    
Maximum Humidity 92    
Minimum Humidity 53    
Precipitation  
Precipitation 0.00 in 0.02 in 0.51 in (1915)
Month to date precipitation 0.67 0.22  
Year to date precipitation 1.13 0.63  
Snow  
Snow 0.00 in 0.20 in 5.20 in (1915)
Month to date snowfall 12.3 2.8  
Since 1 July snowfall 42.5 24.2  
Snow Depth 8.00 in    
Sea Level Pressure  
Sea Level Pressure 29.97 in    
Wind  
Wind Speed 13 mph (West)    
Max Wind Speed 25 mph    
Max Gust Speed 35 mph    
Visibility 10 miles    
Events      
T = Trace of Precipitation, MM = Missing Value Source: NWS Daily Summary

Daily Weather History Graph

Daily Weather History Graph

Search for Another Location

Airport or City:

Trip Planner

Search our weather history database for the weather conditions in past years. The results will help you decide how hot, cold, wet, or windy it might be!

Date:

Astronomy

Feb. 12, 2014 Rise Set
Actual Time 6:54 AM MST 5:23 PM MST
Civil Twilight 6:25 AM MST 5:52 PM MST
Nautical Twilight 5:52 AM MST 6:25 PM MST
Astronomical Twilight 5:20 AM MST 6:57 PM MST
Moon 3:39 PM MST (2/12) 5:13 AM MST (2/12)
Length of Visible Light 11h 27m
Length of Day
10h 29m
Waxing Gibbous, 96% of the Moon is Illuminated
Feb 12
Waxing Gibbous
Feb 14
Full
Feb 22
Last Quarter
Mar 1
New
Mar 8
First Quarter

Hourly Weather History & Observations

Time (MST) Temp. Windchill Dew Point Humidity Pressure Visibility Wind Dir Wind Speed Gust Speed Precip Events Conditions
12:53 AM 27.0 °F 16.1 °F 19.9 °F 75% 30.23 in 10.0 mi NW 12.7 mph - N/A   Partly Cloudy
1:53 AM 26.1 °F 15.6 °F 19.0 °F 75% 30.23 in 10.0 mi West 11.5 mph - N/A   Clear
2:53 AM 17.1 °F 6.6 °F 12.9 °F 84% 30.21 in 10.0 mi NW 8.1 mph - N/A   Clear
3:53 AM 15.1 °F 5.2 °F 12.0 °F 88% 30.22 in 10.0 mi NNW 6.9 mph - N/A   Clear
4:53 AM 12.9 °F 5.2 °F 10.0 °F 88% 30.21 in 10.0 mi NNW 4.6 mph - N/A   Clear
5:53 AM 15.1 °F 7.7 °F 10.9 °F 84% 30.19 in 10.0 mi West 4.6 mph - N/A   Clear
6:53 AM 12.9 °F -0.2 °F 10.0 °F 88% 30.17 in 10.0 mi North 10.4 mph - N/A   Clear
7:53 AM 14.0 °F 8.2 °F 10.9 °F 88% 30.16 in 10.0 mi SW 3.5 mph - N/A   Clear
8:53 AM 18.0 °F 11.1 °F 12.9 °F 81% 30.14 in 10.0 mi East 4.6 mph - N/A   Clear
9:53 AM 23.0 °F 13.1 °F 17.1 °F 78% 30.07 in 10.0 mi ESE 9.2 mph - N/A   Clear
10:53 AM 28.9 °F 21.9 °F 21.9 °F 75% 30.00 in 10.0 mi Variable 6.9 mph - N/A   Clear
11:53 AM 35.1 °F 26.4 °F 24.1 °F 64% 29.95 in 10.0 mi SSW 12.7 mph - N/A   Clear
12:53 PM 34.0 °F 23.4 °F 23.0 °F 64% 29.91 in 10.0 mi South 17.3 mph - N/A   Clear
1:53 PM 34.0 °F 21.8 °F 21.0 °F 59% 29.86 in 10.0 mi SSW 23.0 mph - N/A   Partly Cloudy
2:53 PM 36.0 °F 24.7 °F 21.9 °F 57% 29.84 in 10.0 mi SW 21.9 mph - N/A   Partly Cloudy
3:53 PM 36.0 °F 26.7 °F 25.0 °F 64% 29.82 in 10.0 mi SSW 15.0 mph - N/A   Overcast
4:53 PM 43.0 °F 35.7 °F 28.0 °F 56% 29.78 in 10.0 mi West 15.0 mph - N/A   Overcast
5:53 PM 44.1 °F 35.2 °F 28.0 °F 53% 29.78 in 10.0 mi West 23.0 mph 32.2 mph N/A   Overcast
6:53 PM 43.0 °F 35.7 °F 28.9 °F 58% 29.79 in 10.0 mi West 15.0 mph - N/A   Mostly Cloudy
7:53 PM 41.0 °F 34.3 °F 30.0 °F 65% 29.80 in 10.0 mi West 11.5 mph - N/A   Scattered Clouds
8:53 PM 43.0 °F 35.4 °F 30.9 °F 62% 29.79 in 10.0 mi WNW 16.1 mph - N/A   Clear
9:53 PM 43.0 °F 33.3 °F 30.9 °F 62% 29.77 in 10.0 mi West 25.3 mph 34.5 mph N/A   Clear
10:53 PM 41.0 °F 32.8 °F 30.9 °F 67% 29.78 in 10.0 mi West 16.1 mph - N/A   Clear
11:53 PM 39.9 °F 32.1 °F 30.9 °F 70% 29.79 in 10.0 mi WNW 13.8 mph - N/A   Clear